This is the latest recevied weather packets stored in our database for station/object ZL1CTS-13. If no packets are shown the sender has not sent any weather packets the latest 10 day(s).
| Time | Temp. | Humidity | Pressure | Rain* | Wind** | Luminosity | Snow |
|---|---|---|---|---|---|---|---|
| 1787871004 | 16.11° C | 80% | 1013.1 hPa | 0 mm | - | - | - |
| 1787870704 | 16.11° C | 81% | 1012.9 hPa | 0 mm | - | - | - |
| 1787870404 | 16.11° C | 80% | 1013.2 hPa | 0 mm | - | - | - |
| 1787870104 | 16.11° C | 80% | 1013.1 hPa | 0 mm | - | - | - |
| 1787869805 | 16.11° C | 80% | 1013.2 hPa | 0 mm | - | - | - |
| 1787869503 | 16.11° C | 79% | 1013.2 hPa | 0 mm | - | - | - |
| 1787869204 | 16.11° C | 79% | 1013.2 hPa | 0 mm | - | - | - |
| 1787868904 | 16.11° C | 78% | 1013.2 hPa | 0 mm | - | - | - |
| 1787868604 | 16.67° C | 79% | 1013.2 hPa | 0 mm | - | - | - |
| 1787868311 | 16.11° C | 78% | 1013.2 hPa | 0 mm | - | - | - |
| 1787868004 | 16.11° C | 78% | 1013.2 hPa | 0 mm | - | - | - |
| 1787867704 | 16.11° C | 77% | 1013.2 hPa | 0 mm | - | - | - |
| 1787867404 | 16.67° C | 79% | 1013.2 hPa | 0 mm | - | - | - |
| 1787867103 | 16.11° C | 79% | 1013.1 hPa | 0 mm | - | - | - |
| 1787866804 | 16.67° C | 81% | 1013.2 hPa | 0 mm | - | - | - |
| 1787866507 | 16.11° C | 82% | 1013.2 hPa | 0 mm | - | - | - |
| 1787866204 | 15.56° C | 83% | 1013.2 hPa | 0 mm | - | - | - |
| 1787865906 | 15° C | 83% | 1013.3 hPa | 0 mm | - | - | - |
| 1787865604 | 15.56° C | 84% | 1013.2 hPa | 0 mm | - | - | - |
| 1787865311 | 15° C | 84% | 1013.5 hPa | 0 mm | - | - | - |
| 1787865004 | 15° C | 84% | 1013.3 hPa | 0 mm | - | - | - |
| 1787864706 | 15° C | 86% | 1013.4 hPa | 0 mm | - | - | - |
| 1787864404 | 15° C | 87% | 1013.5 hPa | 0 mm | - | - | - |
| 1787864105 | 14.44° C | 87% | 1013.4 hPa | 0 mm | - | - | - |
| 1787863804 | 14.44° C | 87% | 1013.2 hPa | 0 mm | - | - | - |
* Rain latest hour (hover to see other rain measurements)
** Current wind speed in m/s (hover to see current wind gust speed)